• Processing (Info)

  • MPEC 2008-Q47 : 2008 QU11

    The following Minor Planet Electronic Circular may be linked-to from your own Web pages, but must not otherwise be redistributed electronically.

    A form allowing access to any MPEC is at the bottom of this page.


    Read MPEC 2008-Q46 Read MPEC 2008-Q48


    M.P.E.C. 2008-Q47                                Issued 2008 Aug. 28, 13:42 UT
    
         The Minor Planet Electronic Circulars contain information on unusual
             minor planets and routine data on comets.  They are published
       on behalf of Commission 20 of the International Astronomical Union by the
              Minor Planet Center, Smithsonian Astrophysical Observatory,
                              Cambridge, MA 02138, U.S.A.
    
                 Prepared using the Tamkin Foundation Computer Network
    
                                  MPC@CFA.HARVARD.EDU
              URL http://www.cfa.harvard.edu/iau/mpc.html  ISSN 1523-6714
    
                                       2008 QU11
    
    Observations:
         K08Q11U* C2008 08 26.26970 22 53 46.51 +07 40 32.6          18.9   EQ047704
         K08Q11U  C2008 08 26.28251 22 53 55.66 +07 35 54.9          19.2   EQ047704
         K08Q11U  C2008 08 26.29557 22 54 04.98 +07 31 11.6          19.6   EQ047704
         K08Q11U  C2008 08 26.30832 22 54 13.99 +07 26 36.9          19.2   EQ047704
         K08Q11U  C2008 08 26.32118 22 54 23.04 +07 22 01.5          19.4   EQ047704
         K08Q11U  C2008 08 27.91903 23 10 48.95 -00 08 40.9          19.4 V EQ047A13
         K08Q11U  C2008 08 27.91972 23 10 49.23 -00 08 50.1          19.3 V EQ047A13
         K08Q11U  C2008 08 27.92042 23 10 49.51 -00 08 59.3          19.1 V EQ047A13
         K08Q11U  C2008 08 27.92176 23 10 50.12 -00 09 17.0          19.2 V EQ047A13
         K08Q11U  C2008 08 27.93024 23 10 52.71 -00 11 05.6          19.3 V EQ047595
         K08Q11U  C2008 08 27.93692 23 10 55.10 -00 12 38.5                 EQ047246
         K08Q11U  C2008 08 27.93958 23 10 56.38 -00 13 14.1                 EQ047246
         K08Q11U  C2008 08 27.94040 23 10 56.69 -00 13 26.2                 EQ047246
         K08Q11U  C2008 08 27.94226 23 10 58.68 -00 13 46.7          19.6 V EQ047A13
         K08Q11U  C2008 08 27.94472 23 10 58.49 -00 14 21.4                 EQ047246
         K08Q11U  C2008 08 27.94498 23 10 59.86 -00 14 22.1          19.5 V EQ047A13
         K08Q11U  C2008 08 27.94579 23 10 59.21 -00 14 28.4          19.4 V EQ047595
         K08Q11U  C2008 08 27.97534 23 11 11.31 -00 21 05.4          18.9 R EQ047113
         K08Q11U  C2008 08 27.97596 23 11 11.53 -00 21 14.9          19.5 R EQ047113
         K08Q11U  C2008 08 27.97979 23 11 13.12 -00 22 03.8          18.1 R EQ047113
         K08Q11U  C2008 08 27.98042 23 11 13.36 -00 22 09.9          19.4 R EQ047113
         K08Q11U  C2008 08 27.98194 23 11 14.05 -00 22 21.5          19.2 R EQ047473
         K08Q11U 5C2008 08 28.23186 23 13 13.32 -01 13 59.7          19.2 R EQ047673
         K08Q11U 5C2008 08 28.24618 23 13 18.75 -01 16 52.7                 EQ047673
         K08Q11U 5C2008 08 28.25440 23 13 21.96 -01 18 32.7                 EQ047673
         K08Q11U 5C2008 08 28.26360 23 13 25.33 -01 20 24.0                 EQ047673
         K08Q11U  C2008 08 28.30255 23 13 35.76 -01 28 23.1          19.1 R EQ047H36
         K08Q11U  C2008 08 28.30540 23 13 36.84 -01 28 55.0          19.3 R EQ047H36
         K08Q11U  C2008 08 28.31079 23 13 38.75 -01 29 58.6          19.4 R EQ047H36
         K08Q11U  C2008 08 28.54039 23 15 15.02 -02 09 50.9          19.9 R EQ047474
         K08Q11U  C2008 08 28.54178 23 15 15.50 -02 10 06.7          20.1 R EQ047474
         K08Q11U  C2008 08 28.54282 23 15 15.85 -02 10 18.3          20.1 R EQ047474
         K08Q11U  C2008 08 28.54421 23 15 16.34 -02 10 34.3          19.6 R EQ047474
    
    Observer details:
    113 Volkssternwarte Drebach, Schoenbrunn.  Observers C. 113, A. Knoefel.
        Measurer A. Knoefel.  0.5-m f/5 reflector + CCD.
    246 Klet Observatory-KLENOT.  Observer M. Tichy.  1.06-m KLENOT Telescope
        + CCD.
    473 Remanzacco.  Observers L. Donato, M. Gonano, V. Gonano, E. Guido,
        V. Santini, G. Sostero.  0.45-m f/4.4 Newtonian reflector + CCD.
    474 Mount John Observatory, Lake Tekapo.  Observer A. C. Gilmore.  Measurer
        P. M. Kilmartin.  1.0-m f/7.7 reflector + CCD.
    595 Farra d'Isonzo.  Observers L. Bittesini, D. Caporicci, G. Lombardi,
        E. Pettarin, F. Piani.  Measurers D. Caporicci, G. Lombardi, E. Pettarin.
        0.40-m f/4.5 reflector + CCD.
    673 Table Mountain Observatory, Wrightwood.  Observer D. Mayes.  0.6-m f/16
        Cassegrain + CCD.
    704 Lincoln Laboratory ETS, New Mexico.  Observers M. Bezpalko, D. Torres,
        R. Kracke, G. Spitz, J. Kistler.  Measurers J. Stuart, S. Scruggs.  1.0-m
        f/2.15 reflector + CCD.
    A13 Observatoire Naef, Marly.  Observer P. Kocher.  0.5-m f/3.3 Hypergraph
        + CCD.
    H36 Sandlot Observatory, Scranton.  Observer G. Hug.  0.56-m reflector + CCD.
    
    Orbital elements:
    2008 QU11                                                Earth MOID = 0.0194 AU
    Epoch 2008 Nov. 30.0 TT = JDT 2454800.5                 MPC
    M  57.15636              (2000.0)            P               Q
    n   0.41375119     Peri.  122.75623     +0.16965134     +0.98398621
    a   1.7836510      Node   156.82476     -0.94428182     +0.17818311
    e   0.4958134      Incl.    7.98619     -0.28204658     -0.00468181
    P   2.38           H   25.4           G   0.15           U   7
    Residuals in seconds of arc
    080826 704  0.2+  0.2-    080827 246  0.3+  1.0+    080828 673  0.0   1.5+
    080826 704  0.3-  0.3+    080827 246  0.2-  0.4-    080828 673  0.8-  1.7+
    080826 704  0.1+  0.4-    080827 A13  0.2+  1.5-    080828 673  0.6+  0.8+
    080826 704  0.1+  0.2-    080827 246  0.3-  1.1+    080828 673  0.7-  0.1+
    080826 704  0.2+  0.7+    080827 A13  0.8+  1.2-    080828 H36  0.5+  1.8-
    080827 A13  0.9+  1.2-    080827 595  0.1-  1.1+    080828 H36  1.2+  0.2+
    080827 A13  0.7+  1.3-    080827 113  0.3-  0.6+    080828 H36  0.6+  0.5+
    080827 A13  0.5+  1.3-    080827 113  0.8-  0.8-    080828 474  0.1+  0.1+
    080827 A13  1.1+  1.3-    080827 113  0.7-  0.0     080828 474  0.1+  0.2-
    080827 595  0.7-  0.3-    080827 113  1.0-  2.1+    080828 474  0.0   0.1-
    080827 246  2.2-  1.7+    080827 473  0.3-  0.5-    080828 474  0.3+  0.6-
    
    Ephemeris:
    2008 QU11                a,e,i = 1.78, 0.50, 8                   q = 0.8993
    Date    TT    R. A. (2000) Decl.     Delta      r     Elong.  Phase     V
    2008 08 22    19 45.98   +54 51.0    0.0199   1.017   107.2    71.7    19.4
    2008 08 23    21 13.90   +41 41.5    0.0204   1.023   125.4    53.7    19.0
    2008 08 24    22 02.90   +28 03.7    0.0229   1.029   140.8    38.4    18.8
    2008 08 25    22 31.60   +17 15.9    0.0270   1.035   151.7    27.6    18.9
    2008 08 26    22 49.87   +09 25.2    0.0321   1.041   158.8    20.5    19.0
    2008 08 27    23 02.36   +03 45.9    0.0378   1.047   163.1    16.3    19.3
    2008 08 28    23 11.36   -00 23.7    0.0438   1.053   165.6    13.8    19.5
    2008 08 29    23 18.10   -03 32.2    0.0501   1.059   166.9    12.5    19.8
    2008 08 30    23 23.32   -05 58.5    0.0565   1.065   167.5    11.8    20.0
    2008 08 31    23 27.46   -07 54.5    0.0631   1.071   167.8    11.5    20.3
    2008 09 01    23 30.81   -09 28.3    0.0698   1.078   167.8    11.4    20.5
    2008 09 02    23 33.55   -10 45.5    0.0766   1.084   167.8    11.4    20.7
    2008 09 03    23 35.84   -11 49.9    0.0835   1.090   167.7    11.4    20.9
    2008 09 04    23 37.75   -12 44.2    0.0904   1.097   167.6    11.4    21.1
    2008 09 05    23 39.38   -13 30.4    0.0974   1.104   167.4    11.5    21.3
    2008 09 06    23 40.77   -14 10.2    0.104    1.110   167.3    11.5    21.4
    2008 09 07    23 41.96   -14 44.5    0.112    1.117   167.1    11.6    21.6
    2008 09 08    23 42.99   -15 14.3    0.119    1.124   167.0    11.7    21.7
    2008 09 09    23 43.89   -15 40.2    0.126    1.130   166.8    11.7    21.9
    2008 09 10    23 44.67   -16 03.0    0.133    1.137   166.6    11.9    22.0
    2008 09 11    23 45.35   -16 22.9    0.141    1.144   166.4    12.0    22.2
    
    Timothy B. Spahr             (C) Copyright 2008 MPC           M.P.E.C. 2008-Q47
    

    Read MPEC 2008-Q46 Read MPEC 2008-Q48


    MPEC number:

    Enter an MPEC number in one of the following forms:

    • 1997-B01 (the full form)
    • J97B01 (the packed version of the full form)
    • B01 (the abbreviated form)